Hourly Data Report for July 13, 2016

TORONTO CITY
ONTARIO

43°40'00.000" N
79°24'00.000" W
112.50 m
6158355
71508
XTO

Download Data

Hourly Data (July 2016)
Hourly Data Report for July 13, 2016
TIME
LST
Temp Definition
°C
Dew Point Definition
°C
Rel Hum Definition
%
Precip. Amount Definition
mm

Wind Dir Definition
10's deg

Wind Spd Definition
km/h
Visibility Definition
km
Stn Press Definition
kPa
Hmdx Definition


Wind Chill Definition


Weather Definition


00:00 23.6 18.0 71 0.0 LegendMM LegendMM   99.88 30   LegendNANA
01:00 23.8 17.6 68 0.0 LegendMM LegendMM   99.84 30   LegendNANA
02:00 23.5 17.5 69 0.0 LegendMM LegendMM   99.78 29   LegendNANA
03:00 24.3 17.1 64 0.0 LegendMM LegendMM   99.83 30   LegendNANA
04:00 23.8 17.4 67 0.0 LegendMM LegendMM   99.85 29   LegendNANA
05:00 23.7 17.8 69 0.0 LegendMM LegendMM   99.87 30   LegendNANA
06:00 24.1 18.2 70 0.0 LegendMM LegendMM   99.89 30   LegendNANA
07:00 25.1 18.7 68 0.0 LegendMM LegendMM   99.92 32   LegendNANA
08:00 25.4 19.0 68 0.0 LegendMM LegendMM   99.92 32   LegendNANA
09:00 27.2 19.3 62 0.0 LegendMM LegendMM   99.92 34   LegendNANA
10:00 28.8 19.6 57 0.0 LegendMM LegendMM   99.92 36   LegendNANA
11:00 30.7 20.2 54 0.0 LegendMM LegendMM   99.92 38   LegendNANA
12:00 30.4 20.7 56 0.0 LegendMM LegendMM   99.90 39   LegendNANA
13:00 31.3 21.4 56 0.0 LegendMM LegendMM   99.86 40   LegendNANA
14:00 31.4 21.6 56 0.0 LegendMM LegendMM   99.82 40   LegendNANA
15:00 31.0 20.5 54 0.0 LegendMM LegendMM   99.76 39   LegendNANA
16:00 31.4 20.4 52 0.0 LegendMM LegendMM   99.70 39   LegendNANA
17:00 30.2 19.7 54 0.0 LegendMM LegendMM   99.62 38   LegendNANA
18:00 29.1 18.7 53 0.0 LegendMM LegendMM   99.55 36   LegendNANA
19:00 28.7 18.4 54 0.0 LegendMM LegendMM   99.53 35   LegendNANA
20:00 27.8 18.3 56 0.0 LegendMM LegendMM   99.59 34   LegendNANA
21:00 27.0 18.3 59 0.0 LegendMM LegendMM   99.63 33   LegendNANA
22:00 26.5 18.5 62 0.0 LegendMM LegendMM   99.60 33   LegendNANA
23:00 25.7 19.2 67 0.0 LegendMM LegendMM   99.56 33   LegendNANA

Notes on Data Quality.

Legend

  • E = Estimated
  • M = Missing
  • NA = Not Available*
  • [empty] = Indicates an unobserved value
Date modified: